千帆星座-132(QIANFAN-132)

导读

QIANFAN-132(NORAD编号69077)是中国G60千帆星座组网卫星之一,属于低轨宽带通信卫星。千帆星座采用多层多轨道架构,轨道高度约500-1200公里,单星质量小于100公斤,支持KA/KU双频段通信与激光星间高速传输,延迟低于50毫秒,带宽超100Mbps,集成AI自主管理技术,可支持太空物联网及边缘计算扩展。该卫星旨在参与构建全球覆盖的低轨卫星通信网络,计划最终实现超1.5万颗卫星组网,服务未来6G生态与天地一体化信息服务。

基本信息
目录编号:
69077
目录名称:
QIANFAN-131
国际标识:
2026-104E
轨道中心:
EARTH
卫星名称:
千帆星座-132
卫星全名:
千帆星座-132(QIANFAN-132)
卫星状态:
在轨 (已飞行77 天)
发射日期:
2026-05-12 UTC
国别 :
中国 (CN)
星等 :
--
轨道信息
数据来源 国际轨道数据
星历时间: 2026-07-27T02:43:14+0800
1天前
查看轨道信息
半长轴: 7446.883km
偏心率: 0.0001467
轨道倾角: 88.989°
近地点辐角 58.381°
升交点赤经 337.417°
平近点角 301.748°
近地点: 1067.653km
远地点: 1069.839km
周期: 106.591分钟
每日圈数: 13.509555
详细信息
卫星平台:
132
覆盖范围:
全球
运营商:
上海垣信卫星科技有限公司
运营商所在国:
中国
使用方式:
暂无
卫星简介
千帆星座,也被称为“G60星链”计划,是中国版“星链”的重要组成部分,旨在打造一个由1.4万多颗低轨宽频多媒体卫星构成的庞大星座。千帆星座计划由上海垣信卫星科技有限公司负责实施,于2023年启动建设。该项目是我国第二个低轨卫星大星座,旨在通过构建庞大的卫星网络,为全球用户提供高质量的通信和宽带互联网服务。
2D轨道图
3D轨道图
轨道高度分析图
轨道倾角分析图
轨道综合分析图
查看轨道综合分析图